Regional Weather Roundup
Issued by NWS Boston, MA

Current Version | Previous Version | Text Only | Print | Product List | Glossary Off
Versions: 1 2 3 4 5 6 7 8 9 10 11 12 13 14 15 16 17 18 19 20 21 22 23 24 25 26 27 28 29 30 31 32 33 34 35 36 37 38 39 40 41 42 43 44 45 46 47 48 49 50
000 ASUS41 KBOX 241110 RWRBOX REGIONAL WEATHER ROUNDUP NATIONAL WEATHER SERVICE TAUNTON MA 700 AM EDT FRI MAR 24 2017 NOTE: "FAIR" INDICATES FEW OR NO CLOUDS BELOW 12,000 FEET WITH NO SIGNIFICANT WEATHER AND/OR OBSTRUCTIONS TO VISIBILITY. MAZALL-241200- EASTERN MASSACHUSETTS CITY SKY/WX TMP DP RH WIND PRES REMARKS BOSTON CLOUDY 30 12 47 SW8 30.51R WCI 22 BEVERLY CLOUDY 24 16 71 SW3 30.49R LAWRENCE CLOUDY 25 12 58 CALM 30.51R BEDFORD CLOUDY 25 14 63 CALM 30.49R BLUE HILL NOT AVBL NORWOOD CLOUDY 25 20 81 CALM 30.50S MARSHFIELD MOCLDY 25 10 54 SW5 30.52R WCI 19 PLYMOUTH MOCLDY 24 15 68 CALM 30.52R TAUNTON CLOUDY 25 17 72 CALM 30.51R NEW BEDFORD CLOUDY 27 18 69 CALM 30.52R $$ MAZALL-241200- CAPE COD AND THE ISLANDS CITY SKY/WX TMP DP RH WIND PRES REMARKS FALMOUTH N/A N/A N/A N/A MISG N/A HYANNIS PTCLDY 22 12 65 CALM 30.52R CHATHAM PTCLDY 25 18 74 CALM 30.55R PROVINCETOWN CLOUDY 25 18 74 SE6 30.52R WCI 18 NANTUCKET CLOUDY 27 19 72 CALM 30.54R MARTHAS VNYRD MOCLDY 26 17 68 CALM 30.53R $$ MAZALL-241200- CENTRAL AND WESTERN MASSACHUSETTS CITY SKY/WX TMP DP RH WIND PRES REMARKS WORCESTER CLOUDY 25 5 42 SW7 30.43R WCI 17 FITCHBURG CLOUDY 27 16 63 CALM 30.48R ORANGE CLOUDY 25 19 78 CALM 30.43F SPRINGFIELD CLOUDY 28 12 51 SE3 30.43F WESTFIELD CLOUDY 27 13 55 S5 30.44F WCI 22 NORTH ADAMS CLOUDY 30 7 37 E8 30.39F WCI 22 PITTSFIELD CLOUDY 24 12 60 CALM 30.35F $$ RIZALL-241200- RHODE ISLAND CITY SKY/WX TMP DP RH WIND PRES REMARKS PROVIDENCE CLOUDY 28 14 55 CALM 30.51R NEWPORT CLOUDY 34 23 64 S6 30.51R WCI 29 BLOCK ISLAND CLOUDY 37 26 64 S8 30.51S WCI 31 SMITHFIELD CLOUDY 28 11 48 CALM 30.49R WESTERLY CLOUDY 26 19 74 CALM 30.51S $$ CTZALL-241200- CONNECTICUT CITY SKY/WX TMP DP RH WIND PRES REMARKS BRADLEY INTL CLOUDY 29 18 63 SE5 30.45F WCI 24 HARTFORD CLOUDY 31 21 66 CALM 30.48S BRIDGEPORT CLOUDY 37 26 64 SW9 30.48F WCI 30 DANBURY MOCLDY 32 21 64 SE5 30.46S WCI 27 GROTON CLOUDY 37 28 70 SW10 30.50S WCI 30 NEW HAVEN CLOUDY 36 28 73 SW9 30.48F WCI 29 CHESTER NOT AVBL MERIDEN CLOUDY 30 21 69 CALM 30.48S WILLIMANTIC CLOUDY 28 16 60 CALM 30.51R OXFORD MOCLDY 32 21 64 SW5 30.44F WCI 27 $$ MEZ002-015-021-024-NHZ003-005-008-011-012-014-VTZ005-008-241200- NORTHERN NEW ENGLAND CITY SKY/WX TMP DP RH WIND PRES REMARKS PORTLAND ME CLOUDY 25 5 42 CALM 30.48F BANGOR ME CLOUDY 17 6 62 S5 30.45F WCI 10 CONCORD NH MOCLDY 26 11 52 SE3 30.46S MANCHESTER NH CLOUDY 27 8 44 CALM 30.46S NASHUA NH CLOUDY 26 15 63 SE3 30.49 PORTSMOUTH NH MOCLDY 26 8 46 CALM 30.46F JAFFREY NH NOT AVBL KEENE NH CLOUDY 26 17 68 CALM 30.43 BURLINGTON VT CLOUDY 32 9 38 S15G22 30.32S WCI 22 MT. WASHINGTON MOCLDY 10 -11 37 SW44G56 N/A WCI -15 $$ NYZ052-076-241200- EASTERN NEW YORK CITY SKY/WX TMP DP RH WIND PRES REMARKS ALBANY CLOUDY 33 8 35 VRB7 30.37F WCI 27 NEW YORK CITY MOCLDY 39 20 46 S10 30.48F $$ ANZALL-241200- MARINE OBSERVATIONS STATION/POSITION TIME TEMP WIND PRES VSBY WAVE AIR SEA DIR/SP/G HT/PER (UTC) (F) (DEG/KT/KT) (MB) (MI) (FT/S) BOSTON BUOY 0950 35 40 160/ 6/ 8 1032.1 1/ 6 BUZZARDS BAY 1000 36 190/ 6/ 7 1033.8R NANTUCKET SOUND 1050 38 1033.9R 0 MASS BAY-STELLWA 1004 35 38 150/ 8/ 8 1031.4F 1/ 4 ISLE OF SHOALS 1000 33 160/ 7/ 8 1032.4R S OF BLOCK IS 1055 40 N/A 1/ 4 $$ ......................KEY......................... SKY/WX - SKY CONDITION/PRESENT WEATHER TMP - TEMPERATURE IN FAHRENHEIT DWPT - DEWPOINT IN FAHRENHEIT RH - RELATIVE HUMIDITY IN PERCENT WIND - DIRECTION AND SPEED IN MPH PRES - MEAN SEA LEVEL PRESSURE IN INCHES OF HG WCI - WIND CHILL INDEX VSB - VISIBILITY IN MILES HX - HEAT INDEX TC - TEMPERATURE IN CELSIUS VRB - VARIABLE WIND DIRECTION N/A - NOT AVAILABLE

USA.gov is the U.S. government's official web portal to all federal, state and local government web resources and services.